Starlink 31834

operational
NORAD ID: 59721 Int'l Des: 2024-088 Owner: SPXS Country: US Constellation: starlink
LEOCIRCULAR

Starlink 31834について

説明を読み込み中...

リアルタイム位置

3D地球を読み込み中...

次回通過

高度履歴

Altitude vs Time

uPlot chart will show altitude changes over time

軌道要素

1 59721U 24088P 25352.46516142 .00001070 00000-0 48264-4 0 9998
2 59721 53.1596 157.3808 0001265 74.0147 286.0993 15.30196722 91423
Epoch: Dec 18, 2025 • Age: 14 hours

現在のステータス

高度 493.3 km
速度 7.62 km/s
衛星直下点 -50.00°S, 62.57°W
打ち上げ日 May 10, 2024
運用期間 1.6 years
タイプ internet

技術仕様

分類 Payload
質量 730.00 kg
乾燥質量 700.00 kg
総質量 730.00 kg
長さ 0.30 m
直径 4.10 m
スパン 29.00 m
形状 Box + pan
製造者 SPXS
バスタイプ Starlink V2M
フェーズステータス In Orbit
所有者/国 SPXS/US

大規模コンステレーション

Loading constellations...